Regional Weather Roundup
Issued by NWS Spokane, WA

Home | Current Version | Previous Version | Text Only | Print | Product List | Glossary On
Versions: 1 2 3 4 5 6 7 8 9 10 11 12 13 14 15 16 17 18 19 20 21 22 23 24 25 26 27 28 29 30 31 32 33 34 35 36 37 38 39 40 41 42 43 44 45 46 47 48 49 50
000
NZUS01 KOTX 220110
RWROTX

Eastern Washington/Northern Idaho Roundup
National Weather Service, Spokane WA
500 PM PST TUE FEB 21 2017

Note: "fair" indicated few or no clouds below 12,000 feet with no
significant weather and/or obstructions to visibility.

...Northeast Washington and Northern Idaho Panhandle...

CITY           SKY/WX    TMP DP  RH WIND       PRES   REMARKS
Spokane Intl   LGT SNOW  33  32  96 SW10      29.85R FOG     WCI  25
Spokane Downto LGT RAIN  36  34  92 SW8       29.87R FOG
Coeur d Alene  LGT RAIN  34  33  96 SW9       29.85R WCI  27
Deer Park      CLOUDY    35  33  92 S9        29.85R WCI  28
Sandpoint      CLOUDY    36  36 100 SW3       29.81R
Bonners Ferry  FAIR      36  32  87 CALM      29.78R

...Southeast Washington and southern Idaho Panhandle...

CITY           SKY/WX    TMP DP  RH WIND       PRES   REMARKS
Walla Walla    LGT RAIN  38  36  92 S14       29.95R
Pullman/Moscow LGT SNOW  31  30  96 W10       29.89R VSB 3/4 WCI  22
Lewiston       CLOUDY    40  33  76 W5        29.91R
Lowell           N/A     37  36  96 CALM      29.91R
Grangeville    CLOUDY    37  32  81 SW22      29.84R

...Columbia Basin...

CITY           SKY/WX    TMP DP  RH WIND       PRES   REMARKS
Ephrata        CLOUDY    36  31  82 S6        29.89R
Moses Lake     CLOUDY    36  34  92 S7        29.91R
Pasco          CLOUDY    42  38  85 E5        29.96R
Richland       CLOUDY    44  41  87 S5        29.95R
Hermiston      CLOUDY    44  41  89 SW6       29.95R
Pendleton      CLOUDY    38  37  97 SE5       29.94R

...East Slopes Cascades...

CITY           SKY/WX    TMP DP  RH WIND       PRES   REMARKS
The Dalles     CLOUDY    46  38  73 NW14      30.00R
Yakima         CLOUDY    41  37  86 E5        29.94R
Ellensburg     MOCLDY    40  29  64 NW5       29.90R
Wenatchee      MOCLDY    38  34  85 E6        29.89R
Omak           MOCLDY    38  31  76 S5        29.88R
Sunnyside        N/A     38  36  91 CALM      29.94R

...Southern British Columbia...

CITY           SKY/WX    TMP DP  RH WIND       PRES   REMARKS
Penticton      MOCLDY    39  30  70 CALM      29.84R
Castlegar      MOCLDY    39  34  81 N7        29.82R
Cranbrook      FOG       34  32  93 E2        29.72R VSB 1/8
Osoyoos          N/A     43  32  65 S3          N/A
Creston          N/A     36  34  93 SE3         N/A

...Western Montana...

CITY           SKY/WX    TMP DP  RH WIND       PRES   REMARKS
Kalispell      LGT SNOW  33  32  96 SE5       29.71R FOG     WCI  29
Libby            N/A     36  36 100 CALM      29.76R
Missoula       CLOUDY    36  35  96 SW7       29.74R

...Neighboring Cities...

CITY           SKY/WX    TMP DP  RH WIND       PRES   REMARKS
Seattle        LGT RAIN  45  40  82 NW5       30.02R
Portland       CLOUDY    45  40  82 S6        30.08R
Boise          CLOUDY    48  29  47 NW14      29.95R
Great Falls    LGT RAIN  36  35  96 N6        29.65R VSB 1/4
Calgary        CLOUDY    30  25  80 S6        29.68R HAZE    WCI  24



USA.gov is the U.S. government's official web portal to all federal, state and local government web resources and services.